Location: Fort Wayne
(41.1310°N, 85.1290°W)
Time: 02:16:46
(UTC-04:00)

Courier 1B Rocket - All Passes

Search period start: 21 August 2014 00:00
Search period end: 31 August 2014 00:00
Orbit: 921 x 1202 km, 28.2° (Epoch: 20 August)

Date Brightness Start Highest point End Pass type
(mag) Time Alt. Az. Time Alt. Az. Time Alt. Az.
21 Aug - 05:23:02 10° S 05:24:49 11° SSE 05:26:35 10° SE visible
21 Aug - 07:12:34 10° SW 07:17:12 22° S 07:21:49 10° ESE daylight
21 Aug - 09:04:49 10° SW 09:09:43 24° S 09:14:42 10° SE daylight
21 Aug - 10:58:28 10° SW 11:02:12 16° SSW 11:06:02 10° SSE daylight
22 Aug - 06:12:20 10° SSW 06:16:34 19° SSE 06:20:46 10° ESE visible
22 Aug - 08:04:08 10° SW 08:09:04 25° S 08:14:01 10° SE daylight
22 Aug - 09:57:17 10° WSW 10:01:34 19° SSW 10:05:57 10° SSE daylight
23 Aug - 05:12:21 10° SSW 05:15:57 16° SSE 05:19:30 10° SE visible
23 Aug - 07:03:32 10° SW 07:08:25 24° S 07:13:16 10° ESE daylight
23 Aug - 08:56:18 10° WSW 09:00:56 22° S 09:05:38 10° SE daylight
23 Aug - 10:51:12 10° SW 10:53:21 12° SSW 10:55:31 10° S daylight
24 Aug - 04:12:57 10° S 04:15:20 12° SSE 04:17:41 10° SE visible
24 Aug - 06:03:00 10° SW 06:07:47 22° S 06:12:27 10° ESE visible
24 Aug - 07:55:26 10° WSW 08:00:18 24° S 08:05:10 10° SE daylight
24 Aug - 09:49:17 10° SW 09:52:45 15° SSW 09:56:15 10° SSE daylight
25 Aug - 05:02:38 10° SSW 05:07:08 20° SSE 05:11:31 10° ESE visible
25 Aug - 06:54:38 10° SW 06:59:40 25° S 07:04:36 10° SE daylight
25 Aug - 08:47:58 10° WSW 08:52:09 19° SSW 08:56:20 10° SSE daylight
26 Aug - 04:02:28 10° SSW 04:06:29 17° SSE 04:10:22 10° SE visible
26 Aug - 05:53:55 10° SW 05:59:00 25° S 06:03:57 10° ESE visible
26 Aug - 07:46:52 10° WSW 07:51:32 22° S 07:56:08 10° SE daylight
26 Aug - 09:42:13 10° SW 09:43:53 11° SSW 09:45:33 10° S daylight
27 Aug - 03:02:45 10° S 03:05:49 13° SSE 03:08:47 10° SE visible
27 Aug - 04:53:16 10° SW 04:58:20 23° S 05:03:12 10° ESE visible
27 Aug - 06:45:53 10° WSW 06:50:54 24° S 06:55:47 10° SE daylight
27 Aug - 08:39:57 10° SW 08:43:19 15° SSW 08:46:39 10° SSE daylight
28 Aug - 03:52:45 10° SSW 03:57:38 21° SSE 04:02:19 10° ESE visible
28 Aug - 05:44:58 10° SW 05:50:14 26° S 05:55:17 10° SE visible
28 Aug - 07:38:29 10° WSW 07:42:43 19° SSW 07:46:53 10° SSE daylight
29 Aug - 02:52:26 10° SSW 02:56:56 18° SSE 03:01:15 10° ESE visible
29 Aug - 04:44:08 10° SW 04:49:32 26° S 04:54:42 10° ESE visible
29 Aug - 06:37:16 10° WSW 06:42:06 22° SSW 06:46:48 10° SE visible
29 Aug - 08:32:57 10° SW 08:34:26 11° SSW 08:35:53 10° S daylight
30 Aug - 01:52:30 10° S 01:56:13 15° SSE 01:59:48 10° SE night (unlit)
30 Aug - 03:43:22 10° SW 03:48:49 25° S 03:53:59 10° ESE visible
30 Aug - 05:36:10 10° WSW 05:41:26 25° S 05:46:30 10° SE visible
30 Aug - 07:30:25 10° SW 07:33:52 15° SSW 07:37:15 10° SSE daylight
